DateTimeUTC,F1_A11,F1_S11,BsB_S11,BsG_S11,BsR_S11,BbsB_S11,BbsG_S11,BbsR_S11,BaB_A11,BaG_A11,BaR_A11,T_S11,U_S11,P_S11,T1_A11
2020-10-20T00:00:00Z,00000380,21000600,,,,,,,,,,23.8,00.6,0668.3,31.0
2020-10-20T00:01:00Z,00000380,21000600,,,,,,,,,,23.8,00.6,0668.3,31.0
2020-10-20T00:02:00Z,00000380,21000600,,,,,,,,,,23.8,00.6,0668.3,31.0
2020-10-20T00:03:00Z,00000380,61000600,,,,,,,,,,23.8,00.6,0668.3,31.0
2020-10-20T00:04:00Z,00000380,41000600,0002.95,0003.17,0001.76,0000.79,0000.38,0000.63,0000.14,0000.12,0000.15,23.6,00.7,0669.0,31.0
2020-10-20T00:05:00Z,00000380,01000600,0004.12,0003.32,0001.80,0000.36,0000.59,0000.29,-000.05,-000.10,0000.03,23.6,00.7,0669.1,30.9
2020-10-20T00:06:00Z,00000380,01000600,0003.07,0002.93,0001.94,0001.41,0000.79,0000.45,0000.12,0000.18,0000.14,23.6,00.7,0669.1,30.9
2020-10-20T00:07:00Z,00000380,01000600,0003.82,0002.89,0002.17,0001.00,0000.26,0000.60,0000.24,0000.25,0000.06,23.6,00.7,0669.0,31.0
2020-10-20T00:08:00Z,00000380,01000600,0002.72,0002.83,0001.89,0000.69,0000.31,0000.25,0000.07,-000.02,0000.00,23.6,00.7,0669.1,31.0
2020-10-20T00:09:00Z,00000380,01000600,0004.13,0002.79,0001.71,0000.66,0000.74,0000.32,0000.07,0000.22,0000.17,23.6,00.7,0669.1,31.0
2020-10-20T00:10:00Z,00000380,01000600,0004.75,0002.35,0002.24,0000.41,0000.34,0000.50,0000.20,0000.15,0000.08,23.6,00.8,0669.2,31.0
2020-10-20T00:11:00Z,00000380,01000600,0003.95,0003.10,0001.87,0000.57,0000.55,0000.42,0000.08,0000.04,-000.04,23.6,00.7,0669.2,31.0
2020-10-20T00:12:00Z,00000380,01000600,0003.03,0003.59,0002.19,0000.51,0000.56,0000.08,0000.14,0000.16,0000.28,23.6,00.7,0669.2,31.0
2020-10-20T00:13:00Z,00000380,01000600,0003.90,0002.63,0002.27,0000.65,0000.91,0000.79,0000.07,0000.17,-000.01,23.6,00.7,0669.1,31.0
2020-10-20T00:14:00Z,00000380,01000600,0004.09,0003.31,0001.99,0000.52,0000.63,0000.38,0000.10,-000.01,0000.08,23.6,00.7,0669.1,30.9
2020-10-20T00:15:00Z,00000380,01000600,0003.50,0002.93,0001.91,-000.03,0000.40,0000.93,0000.14,0000.06,0000.03,23.6,00.7,0669.2,30.9
2020-10-20T00:16:00Z,00000380,01000600,0003.26,0003.27,0001.97,0001.59,0000.43,0000.05,0000.11,0000.17,0000.04,23.5,00.7,0669.2,31.0
2020-10-20T00:17:00Z,00000380,01000600,0003.36,0002.89,0001.96,0001.09,0000.34,0000.58,0000.05,-000.03,0000.09,23.5,00.7,0669.2,31.0
2020-10-20T00:18:00Z,00000380,01000600,0003.71,0002.86,0001.79,0001.45,0000.38,-000.07,0000.18,0000.19,0000.10,23.5,00.7,0669.1,31.0
2020-10-20T00:19:00Z,00000380,01000600,0004.85,0002.83,0001.99,0000.81,0000.72,0000.38,0000.14,-000.02,0000.09,23.5,00.6,0669.2,30.9
2020-10-20T00:20:00Z,00000380,01000600,0003.64,0003.44,0002.37,0000.67,0000.27,0000.34,0000.02,-000.01,-000.11,23.5,00.6,0669.2,30.9
2020-10-20T00:21:00Z,00000380,01000600,0003.51,0002.94,0001.70,0001.20,0000.25,0000.51,0000.13,0000.07,0000.30,23.5,00.6,0669.1,30.9
2020-10-20T00:22:00Z,00000380,01000600,0003.42,0002.47,0001.31,0002.00,0000.56,0000.10,0000.09,0000.20,0000.01,23.5,00.6,0669.1,30.9
2020-10-20T00:23:00Z,00000380,01000600,0002.42,0002.50,0002.65,0001.03,0000.83,0000.72,-000.01,0000.18,0000.12,23.5,00.6,0669.2,30.9
2020-10-20T00:24:00Z,00000380,01000600,0003.22,0002.81,0002.35,0000.33,0000.23,0000.13,0000.12,-000.13,-000.08,23.6,00.6,0669.2,31.0
2020-10-20T00:25:00Z,00000380,01000600,0002.83,0003.15,0001.84,0001.32,0000.42,0000.77,0000.37,0000.38,0000.27,23.6,00.6,0669.2,30.9
2020-10-20T00:26:00Z,00000380,01000600,0004.19,0002.67,0001.71,0000.70,0000.45,0000.33,-000.00,0000.06,-000.01,23.6,00.6,0669.2,31.0
2020-10-20T00:27:00Z,00000380,01000600,0003.10,0002.98,0002.35,0000.75,0000.64,0000.80,0000.08,0000.10,0000.15,23.6,00.6,0669.3,31.0
2020-10-20T00:28:00Z,00000380,01000600,0005.02,0002.47,0001.61,0000.45,0000.53,0000.13,-000.07,0000.15,-000.04,23.6,00.4,0669.3,31.0
2020-10-20T00:29:00Z,00000380,01000600,0002.73,0003.42,0002.62,0000.65,0000.80,0000.10,0000.23,0000.08,0000.10,23.6,00.6,0669.3,31.0
2020-10-20T00:30:00Z,00000380,01000600,0003.88,0002.87,0001.81,0000.71,0000.42,0000.31,0000.14,0000.14,0000.04,23.6,00.6,0669.3,31.0
2020-10-20T00:31:00Z,00000380,01000600,0003.59,0003.06,0001.96,0001.25,0000.11,0000.06,0000.04,0000.10,0000.11,23.5,00.5,0669.3,31.0
2020-10-20T00:32:00Z,00000380,01000600,0003.42,0002.67,0002.30,0000.71,0000.30,0000.30,0000.15,-000.02,0000.04,23.6,00.5,0669.3,31.0
2020-10-20T00:33:00Z,00000380,01000600,0004.66,0003.90,0002.04,0000.11,0000.56,0000.28,0000.23,0000.01,0000.08,23.6,00.6,0669.3,30.9
2020-10-20T00:34:00Z,00000380,01000600,0004.04,0002.84,0001.63,0000.86,0000.62,0000.06,0000.02,0000.08,0000.16,23.5,00.6,0669.2,30.9
2020-10-20T00:35:00Z,00000380,01000600,0004.10,0003.69,0001.91,0000.39,0000.24,0000.72,0000.11,0000.21,-000.05,23.5,00.5,0669.2,30.9
2020-10-20T00:36:00Z,00000380,01000600,0004.53,0003.11,0001.98,0000.62,0000.45,0000.51,0000.09,-000.15,0000.06,23.5,00.6,0669.3,30.9
2020-10-20T00:37:00Z,00000380,01000600,0003.78,0002.47,0002.19,0000.73,0000.65,0000.67,0000.19,0000.25,0000.12,23.5,00.6,0669.3,30.9
2020-10-20T00:38:00Z,00000380,01000600,0002.62,0002.17,0002.16,0001.51,0000.69,0000.74,-000.04,0000.05,0000.04,23.6,00.6,0669.2,31.0
2020-10-20T00:39:00Z,00000380,01000600,0002.25,0003.40,0002.24,0000.07,0000.52,0000.23,0000.18,0000.23,0000.16,23.6,00.6,0669.2,31.0
2020-10-20T00:40:00Z,00000380,01000600,0004.71,0002.67,0001.73,0000.63,0000.33,0000.06,0000.08,0000.04,0000.09,23.6,00.6,0669.2,31.0
2020-10-20T00:41:00Z,00000380,01000600,0003.85,0002.78,0001.96,0000.32,0000.32,0000.24,0000.08,0000.14,-000.00,23.6,00.5,0669.3,31.0
2020-10-20T00:42:00Z,00000380,01000600,0002.60,0003.06,0001.90,0000.29,0000.45,0000.09,0000.01,0000.06,0000.12,23.6,00.5,0669.2,31.0
2020-10-20T00:43:00Z,00000380,01000600,0002.70,0003.22,0002.04,0000.96,0000.21,0000.49,0000.11,-000.02,0000.03,23.6,00.5,0669.3,31.0
2020-10-20T00:44:00Z,00000380,01000600,0004.29,0003.33,0001.91,0001.18,0000.46,0000.74,0000.16,0000.07,0000.09,23.6,00.5,0669.2,31.0
2020-10-20T00:45:00Z,00000380,01000600,0003.05,0003.19,0002.44,0000.61,0000.47,0000.00,0000.01,0000.25,-000.04,23.5,00.5,0669.2,31.0
2020-10-20T00:46:00Z,00000380,01000600,0003.65,0003.58,0002.67,0000.36,0000.63,0000.33,0000.23,0000.08,0000.28,23.5,00.5,0669.3,31.0
2020-10-20T00:47:00Z,00000380,01000600,0003.19,0003.39,0002.01,0000.52,0000.65,0000.05,0000.04,0000.11,0000.01,23.6,00.5,0669.2,31.0
2020-10-20T00:48:00Z,00000380,01000600,0004.54,0003.32,0001.61,0000.57,0000.46,0000.43,0000.12,0000.04,0000.07,23.5,00.5,0669.2,30.9
2020-10-20T00:49:00Z,00000380,01000600,0003.66,0003.61,0001.59,0001.02,0000.47,0000.20,0000.02,-000.14,-000.01,23.5,00.5,0669.2,30.9
2020-10-20T00:50:00Z,00000380,01000600,0004.45,0002.87,0001.93,0000.59,0000.58,0000.49,0000.12,0000.12,0000.07,23.5,00.5,0669.1,30.9
2020-10-20T00:51:00Z,00000380,01000600,0003.68,0003.22,0002.13,0001.25,0000.68,0000.27,0000.17,0000.11,0000.01,23.5,00.5,0669.2,30.9
2020-10-20T00:52:00Z,00000380,01000600,0004.38,0003.53,0002.32,0000.72,0000.53,0000.18,0000.00,0000.28,0000.27,23.5,00.5,0669.2,31.0
2020-10-20T00:53:00Z,00000380,01000600,0002.08,0002.84,0001.87,0000.09,0000.62,0000.60,0000.10,-000.03,-000.14,23.6,00.4,0669.2,31.0
2020-10-20T00:54:00Z,00000380,01000600,0004.45,0003.36,0002.27,0000.63,0000.60,0000.72,0000.14,0000.18,0000.19,23.6,00.6,0669.3,31.0
2020-10-20T00:55:00Z,00000380,01000600,0004.30,0003.60,0002.79,0001.44,0000.35,0000.33,0000.13,0000.16,0000.20,23.5,00.5,0669.2,31.0
2020-10-20T00:56:00Z,00000380,01000600,0004.65,0003.58,0002.53,0000.94,0000.60,0000.08,0000.17,-000.16,-000.01,23.6,00.5,0669.2,31.0
2020-10-20T00:57:00Z,00000380,41000600,,,,,,,,,,23.6,00.2,0669.3,31.0
2020-10-20T00:58:00Z,00000380,61000600,,,,,,,,,,23.7,00.4,0668.3,31.0
2020-10-20T00:59:00Z,00000380,21000600,,,,,,,,,,23.8,00.4,0668.3,31.0
2020-10-20T01:00:00Z,00000380,21000600,,,,,,,,,,23.8,00.4,0668.3,30.9
2020-10-20T01:01:00Z,00000380,21000600,,,,,,,,,,23.8,00.4,0668.3,30.9
2020-10-20T01:02:00Z,00000380,21000600,,,,,,,,,,23.8,00.4,0668.3,31.0
2020-10-20T01:03:00Z,00000380,61000600,,,,,,,,,,23.8,00.4,0668.3,31.0
2020-10-20T01:04:00Z,00000380,41000600,0004.59,0003.26,0002.07,0000.81,0000.56,0000.30,0000.07,0000.07,0000.09,23.6,00.4,0669.2,31.0
2020-10-20T01:05:00Z,00000380,01000600,0003.79,0002.71,0002.27,0000.65,0000.27,0000.43,0000.01,-000.11,-000.03,23.6,00.4,0669.3,30.9
2020-10-20T01:06:00Z,00000380,01000600,0004.32,0002.66,0002.67,0001.11,0000.71,0000.35,0000.13,0000.19,0000.16,23.6,00.4,0669.3,30.9
2020-10-20T01:07:00Z,00000380,01000600,0004.19,0003.12,0002.74,-000.02,0000.20,0000.62,0000.02,0000.15,-000.01,23.6,00.4,0669.2,30.9
2020-10-20T01:08:00Z,00000380,01000600,0002.71,0003.05,0002.56,-000.25,0000.53,0000.58,0000.16,0000.11,0000.16,23.6,00.4,0669.2,31.0
2020-10-20T01:09:00Z,00000380,01000600,0003.48,0003.41,0001.97,0000.63,0000.70,0000.52,0000.04,0000.11,0000.10,23.6,00.4,0669.2,31.0
2020-10-20T01:10:00Z,00000380,01000600,0004.51,0003.30,0002.67,0000.65,0000.87,0000.68,-000.03,0000.02,0000.01,23.6,00.3,0669.3,31.0
2020-10-20T01:11:00Z,00000380,01000600,0004.12,0003.17,0002.77,0001.00,0000.17,0000.67,0000.15,0000.06,0000.12,23.6,00.4,0669.2,31.0
2020-10-20T01:12:00Z,00000380,01000600,0003.97,0002.51,0002.72,0000.48,-000.09,0000.21,0000.22,0000.27,0000.17,23.6,00.4,0669.1,31.0
2020-10-20T01:13:00Z,00000380,01000600,0003.93,0003.15,0003.06,-000.29,0000.43,0000.76,-000.06,-000.13,-000.19,23.6,00.4,0669.1,31.0
2020-10-20T01:14:00Z,00000380,01000600,0003.67,0002.84,0002.62,0000.40,0000.15,0000.67,0000.13,0000.19,0000.23,23.6,00.4,0669.2,31.0
2020-10-20T01:15:00Z,00000380,01000600,0003.81,0002.90,0002.71,0000.40,0000.50,0000.77,0000.12,0000.16,0000.04,23.6,00.3,0669.1,31.0
2020-10-20T01:16:00Z,00000380,01000600,0004.43,0003.23,0002.94,0000.83,0000.46,0000.15,0000.04,-000.09,-000.09,23.6,00.4,0669.1,31.0
2020-10-20T01:17:00Z,00000380,01000600,0004.53,0003.24,0002.23,0000.13,0000.58,0000.71,0000.08,0000.12,0000.21,23.6,00.3,0669.2,30.9
2020-10-20T01:18:00Z,00000380,01000600,0004.73,0004.02,0002.85,0001.25,0000.34,0000.54,0000.22,0000.11,0000.15,23.6,00.3,0669.2,30.9
2020-10-20T01:19:00Z,00000380,01000600,0003.65,0003.63,0002.91,0000.50,0000.38,0000.17,-000.09,0000.01,-000.17,23.6,00.3,0669.2,30.9
2020-10-20T01:20:00Z,00000380,01000600,0004.80,0003.45,0002.84,0000.45,0000.20,0000.51,0000.12,-000.01,0000.08,23.5,00.2,0669.2,30.9
2020-10-20T01:21:00Z,00000380,01000600,0004.22,0003.37,0002.78,0000.45,0000.26,0000.34,0000.23,0000.11,0000.17,23.5,00.3,0669.2,30.9
2020-10-20T01:22:00Z,00000380,01000600,0003.95,0003.30,0002.49,0000.75,0000.40,0000.02,0000.08,0000.29,0000.03,23.5,00.3,0669.2,30.9
2020-10-20T01:23:00Z,00000380,01000600,0004.22,0003.15,0002.68,0000.58,0000.79,0000.33,-000.02,-000.02,0000.09,23.5,00.3,0669.2,30.9
2020-10-20T01:24:00Z,00000380,01000600,0003.97,0003.11,0002.71,0000.25,0000.53,0000.39,0000.16,0000.06,0000.03,23.6,00.3,0669.3,30.9
2020-10-20T01:25:00Z,00000380,01000600,0004.42,0003.61,0002.86,0001.36,0000.15,0001.06,0000.19,0000.32,0000.16,23.6,00.2,0669.3,31.0
2020-10-20T01:26:00Z,00000380,01000600,0004.18,0003.67,0002.51,0000.53,0000.33,0000.52,-000.03,-000.09,0000.05,23.6,00.2,0669.3,31.0
2020-10-20T01:27:00Z,00000380,01000600,0005.26,0003.69,0003.32,0000.37,0000.47,0000.86,0000.05,0000.07,0000.06,23.6,00.3,0669.3,31.0
2020-10-20T01:28:00Z,00000380,01000600,0003.36,0003.65,0002.54,0000.75,0000.40,0000.36,0000.04,0000.12,-000.02,23.5,00.2,0669.2,31.0
2020-10-20T01:29:00Z,00000380,01000600,0003.28,0003.98,0002.83,0000.68,0000.06,0000.35,0000.19,0000.03,0000.05,23.5,00.3,0669.2,31.0
2020-10-20T01:30:00Z,00000380,01000600,0005.22,0003.65,0002.71,0000.64,0000.51,0000.82,-000.04,0000.05,0000.06,23.5,00.3,0669.2,31.0
2020-10-20T01:31:00Z,00000380,01000600,0003.93,0003.42,0002.72,0000.72,0000.36,0000.38,0000.17,0000.16,0000.17,23.5,00.2,0669.2,31.0
2020-10-20T01:32:00Z,00000380,01000600,0004.24,0003.33,0002.74,0000.52,0000.43,0000.74,0000.08,-000.03,-000.02,23.5,00.2,0669.2,31.0
2020-10-20T01:33:00Z,00000380,01000600,0004.00,0003.40,0002.65,-000.06,0000.86,0000.53,0000.16,0000.19,0000.08,23.5,00.3,0669.2,31.0
2020-10-20T01:34:00Z,00000380,01000600,0003.93,0003.67,0002.36,0000.60,0000.27,0000.48,0000.03,-000.15,0000.01,23.5,00.2,0669.1,31.0
2020-10-20T01:35:00Z,00000380,01000600,0004.19,0003.33,0002.46,0000.18,0000.45,0000.50,0000.25,0000.07,0000.06,23.5,00.3,0669.2,30.9
2020-10-20T01:36:00Z,00000380,01000600,0003.80,0003.20,0002.64,0000.69,0000.37,0000.68,-000.04,0000.20,0000.25,23.5,00.2,0669.2,30.9
2020-10-20T01:37:00Z,00000380,01000600,0003.83,0003.49,0002.20,0000.99,0000.46,0000.61,0000.31,0000.25,-000.02,23.5,00.2,0669.2,31.0
2020-10-20T01:38:00Z,00000380,01000600,0004.27,0003.63,0002.51,0000.81,0000.33,0000.35,-000.00,-000.01,0000.10,23.5,00.2,0669.2,31.0
2020-10-20T01:39:00Z,00000380,01000600,0004.29,0002.89,0002.90,0000.82,0000.27,0000.49,0000.04,0000.37,0000.12,23.5,00.2,0669.2,31.0
2020-10-20T01:40:00Z,00000380,01000600,0004.08,0003.27,0002.39,0000.36,0000.48,0000.43,0000.17,0000.03,0000.04,23.5,00.3,0669.2,31.0
2020-10-20T01:41:00Z,00000380,01000600,0002.72,0003.17,0002.31,0000.76,0000.24,0000.42,0000.09,-000.00,0000.07,23.5,00.2,0669.0,31.0
2020-10-20T01:42:00Z,00000380,01000600,0004.57,0002.95,0002.67,0000.94,0000.68,0000.55,0000.17,0000.12,0000.06,23.5,00.2,0669.0,31.0
2020-10-20T01:43:00Z,00000380,01000600,0003.45,0003.18,0001.81,-000.25,0000.35,0000.43,0000.09,0000.19,0000.09,23.5,00.2,0669.0,30.9
2020-10-20T01:44:00Z,00000380,01000600,0003.84,0002.43,0002.15,0001.49,-000.00,0000.41,0000.20,0000.14,0000.04,23.5,00.3,0669.0,30.9
2020-10-20T01:45:00Z,00000380,01000600,0004.95,0002.92,0002.50,0000.30,0000.45,0000.32,0000.05,-000.01,0000.19,23.5,00.2,0669.1,30.9
2020-10-20T01:46:00Z,00000380,01000600,0004.10,0003.50,0002.97,0000.22,-000.37,0000.57,0000.22,0000.14,-000.02,23.5,00.2,0669.1,30.9
2020-10-20T01:47:00Z,00000380,01000600,0003.59,0002.49,0002.60,0001.01,0000.28,0000.16,-000.07,-000.00,-000.03,23.5,00.2,0669.1,30.9
2020-10-20T01:48:00Z,00000380,01000600,0004.56,0003.07,0002.74,-000.07,0000.55,0000.38,0000.10,0000.11,0000.18,23.5,00.2,0669.1,30.9
2020-10-20T01:49:00Z,00000380,01000600,0004.04,0003.69,0002.06,0001.07,0000.36,0000.06,0000.03,-000.02,0000.03,23.5,00.2,0669.1,30.9
2020-10-20T01:50:00Z,00000380,01000600,0004.29,0003.28,0002.13,0000.61,-000.22,0000.61,0000.14,0000.02,-000.03,23.4,00.2,0669.1,30.9
2020-10-20T01:51:00Z,00000380,01000600,0002.64,0002.87,0002.54,0001.25,0000.54,0000.43,0000.06,0000.09,0000.13,23.4,00.2,0669.2,30.9
2020-10-20T01:52:00Z,00000380,01000600,0005.32,0003.68,0002.53,0000.59,0000.62,0000.33,0000.11,0000.24,0000.00,23.4,00.2,0669.2,30.9
2020-10-20T01:53:00Z,00000380,01000600,0003.12,0003.32,0002.81,-000.31,0000.57,0000.14,0000.12,0000.03,0000.19,23.5,00.2,0669.1,30.9
2020-10-20T01:54:00Z,00000380,01000600,0004.79,0003.22,0002.50,0000.18,0000.34,0000.54,-000.01,0000.11,0000.03,23.5,00.2,0669.1,31.0
2020-10-20T01:55:00Z,00000380,01000600,0004.18,0002.79,0001.98,0000.64,0000.34,0000.40,0000.27,0000.11,0000.08,23.5,00.2,0669.1,31.0
2020-10-20T01:56:00Z,00000380,01000600,0003.66,0002.67,0002.35,0000.14,0000.18,0000.67,0000.00,0000.05,0000.08,23.5,00.1,0669.2,30.9
2020-10-20T01:57:00Z,00000380,41000600,,,,,,,,,,23.5,00.2,0669.2,31.0
2020-10-20T01:58:00Z,00000380,61000600,,,,,,,,,,23.6,00.1,0668.3,31.0
2020-10-20T01:59:00Z,00000380,21000600,,,,,,,,,,23.7,00.0,0668.3,31.0
2020-10-20T02:00:00Z,00000380,21000600,,,,,,,,,,23.7,00.0,0668.3,31.0
2020-10-20T02:01:00Z,00000380,21000600,,,,,,,,,,23.7,00.0,0668.3,30.9
2020-10-20T02:02:00Z,00000380,21000600,,,,,,,,,,23.7,00.0,0668.3,30.9
2020-10-20T02:03:00Z,00000380,61000600,,,,,,,,,,23.7,00.0,0668.3,30.9
2020-10-20T02:04:00Z,00000380,41000600,0003.47,0003.26,0002.02,0000.60,0000.33,0000.11,0000.09,-000.17,0000.05,23.5,00.1,0669.2,30.9
2020-10-20T02:05:00Z,00000380,01000600,0004.50,0002.00,0002.22,0001.19,0000.16,-000.03,-000.11,0000.27,0000.04,23.5,00.1,0669.2,30.9
2020-10-20T02:06:00Z,00000380,01000600,0004.67,0002.30,0002.39,0000.98,-000.24,0000.05,0000.23,0000.20,0000.10,23.5,00.0,0669.2,30.9
2020-10-20T02:07:00Z,00000380,01000600,0003.91,0002.71,0002.38,0001.18,0000.20,0000.05,0000.12,0000.06,0000.15,23.5,00.0,0669.2,30.9
2020-10-20T02:08:00Z,00000380,01000600,0003.39,0003.29,0002.45,0001.93,0000.45,0000.13,0000.08,0000.13,0000.20,23.5,00.0,0669.2,30.9
2020-10-20T02:09:00Z,00000380,01000600,0002.76,0003.16,0002.58,0000.54,0000.42,0000.51,0000.32,0000.09,-000.11,23.5,00.1,0669.2,30.9
2020-10-20T02:10:00Z,00000380,01000600,0003.86,0002.41,0002.39,0001.07,0000.21,0000.23,0000.04,0000.09,0000.14,23.5,00.0,0669.2,30.9
2020-10-20T02:11:00Z,00000380,01000600,0003.36,0002.75,0002.53,0001.02,0000.14,-000.03,0000.09,0000.33,0000.13,23.5,00.1,0669.2,31.0
2020-10-20T02:12:00Z,00000380,01000600,0004.98,0002.92,0002.03,0001.06,0000.20,0000.21,0000.14,-000.12,0000.05,23.5,00.0,0669.2,31.0
2020-10-20T02:13:00Z,00000380,01000600,0004.04,0002.68,0002.21,0000.24,0000.30,0000.48,0000.07,0000.25,0000.11,23.5,00.0,0669.2,31.0
2020-10-20T02:14:00Z,00000380,01000600,0003.16,0003.19,0001.97,0001.23,0000.39,0000.16,0000.05,0000.18,-000.01,23.5,00.0,0669.2,31.0
2020-10-20T02:15:00Z,00000380,01000600,0004.58,0002.95,0002.66,0000.48,-000.06,0000.28,0000.20,-000.04,0000.09,23.5,00.1,0669.2,31.0
2020-10-20T02:16:00Z,00000380,01000600,0004.26,0002.78,0002.53,0001.25,0000.08,0000.15,0000.16,0000.14,0000.22,23.5,00.1,0669.2,31.0
2020-10-20T02:17:00Z,00000380,01000600,0004.13,0002.85,0002.50,0000.51,0000.14,0000.36,0000.06,0000.01,-000.08,23.5,00.1,0669.2,30.9
2020-10-20T02:18:00Z,00000380,01000600,0004.35,0002.52,0002.21,0001.40,0000.50,0000.20,0000.17,0000.23,0000.14,23.5,00.1,0669.2,31.0
2020-10-20T02:19:00Z,00000380,01000600,0005.25,0002.81,0002.68,0001.55,-000.00,0000.20,0000.11,-000.05,0000.12,23.5,00.1,0669.2,31.0
2020-10-20T02:20:00Z,00000380,01000600,0004.75,0002.83,0002.96,0001.48,0000.37,0000.35,-000.04,0000.03,-000.13,23.4,00.1,0669.2,30.9
2020-10-20T02:21:00Z,00000380,01000600,0003.95,0002.82,0002.64,0000.79,0000.51,0000.12,0000.29,0000.18,0000.29,23.4,00.1,0669.2,30.9
2020-10-20T02:22:00Z,00000380,01000600,0003.57,0002.95,0002.07,0001.42,0000.42,0000.70,-000.03,0000.25,0000.04,23.4,00.1,0669.2,30.9
2020-10-20T02:23:00Z,00000380,01000600,0004.85,0002.72,0002.77,0000.46,0000.10,0000.55,0000.10,0000.03,0000.04,23.4,00.1,0669.2,30.9
2020-10-20T02:24:00Z,00000380,01000600,0004.41,0003.44,0002.43,0001.73,0000.54,-000.27,0000.13,0000.12,0000.21,23.4,00.1,0669.1,31.0
2020-10-20T02:25:00Z,00000380,01000600,0005.94,0003.10,0002.48,0000.44,0000.35,0000.25,0000.07,0000.14,0000.11,23.5,00.0,0669.1,31.0
2020-10-20T02:26:00Z,00000380,01000600,0003.47,0003.50,0002.71,0001.87,0000.46,0000.19,0000.15,0000.16,-000.01,23.5,00.0,0669.1,31.0
2020-10-20T02:27:00Z,00000380,01000600,0004.80,0003.67,0002.28,0001.51,0000.28,0000.38,0000.04,-000.03,0000.08,23.4,00.1,0669.1,31.0
2020-10-20T02:28:00Z,00000380,01000600,0004.88,0002.88,0003.34,0001.31,0000.08,0000.36,0000.21,0000.16,0000.11,23.4,00.0,0669.1,31.0
2020-10-20T02:29:00Z,00000380,01000600,0004.95,0003.46,0002.48,0001.22,0000.18,0000.37,0000.10,0000.02,0000.02,23.4,00.1,0669.1,31.0
2020-10-20T02:30:00Z,00000380,01000600,0004.69,0003.28,0002.98,0000.81,0000.17,0000.35,0000.13,0000.12,-000.03,23.4,00.1,0669.1,31.0
2020-10-20T02:31:00Z,00000380,01000600,0004.78,0003.10,0002.66,0000.85,0000.48,0000.17,-000.03,0000.09,0000.22,23.4,00.0,0669.1,31.0
2020-10-20T02:32:00Z,00000380,01000600,0004.62,0003.14,0002.95,0001.37,0000.37,0000.31,0000.10,0000.16,-000.02,23.4,00.1,0669.1,31.0
2020-10-20T02:33:00Z,00000380,01000600,0003.83,0003.71,0002.89,0000.97,0000.36,-000.27,0000.10,0000.00,0000.01,23.4,00.0,0669.1,31.0
2020-10-20T02:34:00Z,00000380,01000600,0004.22,0003.36,0003.41,0000.04,0000.74,0000.42,-000.05,0000.11,0000.01,23.4,00.0,0669.2,31.0
2020-10-20T02:35:00Z,00000380,01000600,0004.73,0003.45,0003.71,0000.78,0000.39,0000.48,0000.06,-000.07,0000.10,23.4,00.0,0669.2,30.9
2020-10-20T02:36:00Z,00000380,01000600,0004.76,0003.52,0002.71,0001.99,0000.49,0000.57,0000.23,0000.06,0000.14,23.4,00.0,0669.2,30.9
2020-10-20T02:37:00Z,00000380,01000600,0005.23,0004.03,0003.20,0000.32,0000.48,0000.06,0000.00,0000.19,0000.05,23.4,00.0,0669.2,30.9
2020-10-20T02:38:00Z,00000380,01000600,0004.65,0003.18,0003.48,0001.46,0000.49,0000.13,0000.14,-000.00,0000.00,23.4,00.0,0669.2,30.9
2020-10-20T02:39:00Z,00000380,01000600,0003.51,0003.21,0002.50,0000.69,0000.28,0000.61,-000.05,0000.19,0000.18,23.4,00.0,0669.2,30.9
2020-10-20T02:40:00Z,00000380,01000600,0005.02,0002.98,0003.00,0000.71,0000.42,0000.50,0000.25,0000.18,0000.03,23.4,00.0,0669.1,30.9
2020-10-20T02:41:00Z,00000380,01000600,0003.91,0003.21,0003.20,0000.74,0000.21,0000.43,0000.22,0000.04,0000.04,23.4,00.0,0669.1,31.0
2020-10-20T02:42:00Z,00000380,01000600,0004.03,0002.75,0002.45,0001.23,0000.50,0000.05,-000.03,0000.17,0000.19,23.4,00.0,0669.1,31.0
2020-10-20T02:43:00Z,00000380,01000600,0003.56,0003.51,0002.98,0000.02,0000.19,0000.44,0000.21,0000.08,-000.04,23.4,00.0,0669.1,31.0
2020-10-20T02:44:00Z,00000380,01000600,0004.35,0003.81,0002.74,0000.25,0000.47,0000.17,0000.12,0000.09,0000.08,23.4,00.0,0669.1,31.0
2020-10-20T02:45:00Z,00000380,01000600,0003.09,0003.28,0002.50,0001.79,0000.33,0000.13,-000.00,-000.06,0000.11,23.4,00.0,0669.2,31.0
2020-10-20T02:46:00Z,00000380,01000600,0004.54,0002.92,0002.46,0000.62,0000.16,0000.45,0000.12,0000.13,0000.15,23.4,00.0,0669.2,31.0
2020-10-20T02:47:00Z,00000380,01000600,0004.02,0003.18,0002.90,0000.98,0000.24,0000.13,0000.11,0000.06,-000.01,23.4,00.0,0669.2,31.0
2020-10-20T02:48:00Z,00000380,01000600,0003.89,0003.27,0003.17,0000.78,0000.51,0000.27,0000.04,0000.09,0000.07,23.4,00.0,0669.2,31.0
2020-10-20T02:49:00Z,00000380,01000600,0003.95,0003.78,0002.99,0001.21,0000.46,0000.35,0000.18,0000.05,-000.12,23.4,00.0,0669.1,30.9
2020-10-20T02:50:00Z,00000380,01000600,0004.40,0003.53,0002.78,0001.16,0000.39,-000.00,0000.06,0000.01,0000.16,23.4,00.0,0669.1,30.9
2020-10-20T02:51:00Z,00000380,01000600,0004.44,0003.70,0002.64,0001.17,0000.04,0000.51,0000.10,0000.19,0000.07,23.4,00.0,0669.1,30.9
2020-10-20T02:52:00Z,00000380,01000600,0003.78,0003.50,0002.59,0001.26,-000.09,0000.41,0000.10,0000.17,0000.03,23.4,00.0,0669.1,30.9
2020-10-20T02:53:00Z,00000380,01000600,0004.93,0003.34,0002.69,0001.03,0000.30,0000.26,0000.06,-000.12,0000.13,23.4,00.0,0669.1,31.0
2020-10-20T02:54:00Z,00000380,01000600,0004.05,0003.46,0002.68,0001.01,0000.21,0000.15,0000.02,0000.27,0000.15,23.4,00.0,0669.1,31.0
2020-10-20T02:55:00Z,00000380,01000600,0003.18,0003.34,0002.51,0001.06,0000.69,0000.47,0000.25,0000.17,0000.10,23.4,00.0,0669.1,31.0
2020-10-20T02:56:00Z,00000380,01000600,0003.23,0002.20,0003.17,0001.12,0000.09,0000.81,0000.16,0000.04,0000.11,23.4,00.0,0669.1,31.0
2020-10-20T02:57:00Z,00000380,41000600,,,,,,,,,,23.4,00.0,0669.3,31.0
2020-10-20T02:58:00Z,00000380,61000600,,,,,,,,,,23.5,00.0,0668.2,31.0
2020-10-20T02:59:00Z,00000380,21000600,,,,,,,,,,23.6,00.0,0668.1,31.0
2020-10-20T03:00:00Z,00000380,21000600,,,,,,,,,,23.6,00.0,0668.1,31.0
2020-10-20T03:01:00Z,00000380,21000600,,,,,,,,,,23.5,00.0,0668.1,31.0
2020-10-20T03:02:00Z,00000380,21000600,,,,,,,,,,23.6,00.0,0668.1,31.0
2020-10-20T03:03:00Z,00000380,61000600,,,,,,,,,,23.6,00.0,0668.1,30.9
2020-10-20T03:04:00Z,00000380,41000600,0003.48,0003.69,0002.14,-000.04,0000.65,-000.07,0000.13,0000.02,-000.06,23.5,00.0,0668.9,30.9
2020-10-20T03:05:00Z,00000380,01000600,0003.01,0003.95,0002.57,0000.38,0000.69,0000.57,0000.05,0000.05,0000.08,23.4,00.1,0668.9,30.9
2020-10-20T03:06:00Z,00000388,01000608,0004.38,0002.89,0002.07,0000.35,0000.51,0000.14,0000.15,-000.02,0000.14,23.4,00.0,0668.9,30.9
2020-10-20T03:07:00Z,00000388,01000608,0004.43,0003.19,0002.67,0000.39,0000.10,0000.09,0000.16,0000.20,0000.07,23.4,00.0,0668.9,30.9
2020-10-20T03:08:00Z,00000388,01000608,0003.00,0002.97,0002.06,-000.09,0000.39,0000.47,0000.23,0000.20,0000.13,23.4,00.1,0668.9,30.9
2020-10-20T03:09:00Z,00000388,01000608,0002.84,0003.66,0002.16,0000.34,0000.14,0000.02,0000.03,0000.01,-000.01,23.4,00.0,0668.9,30.9
2020-10-20T03:10:00Z,00000388,01000608,0003.42,0003.19,0002.53,-000.72,-000.19,0000.08,0000.18,0000.32,0000.16,23.5,00.1,0668.9,30.9